Theta_e
309 309 309 307 306 303 303 303 303 304 304 305 305 305 305 306 306 306 306 306 302 303 305 309 313 313 316 321 318 320 322 321 320 323 323 322 323 327 335 337 339 339 338 335 332 343 346
309 309 309 309 308 306 304 304 303 304 304 305 305 305 305 305 305 306 307 307 303 304 306 309 311 314 319 317 315 321 325 323 326 323 322 321 325 328 335 336 334 334 337 333 334 344 348
309 309 309 309 307 303 303 303 304 304 304 305 305 305 305 305 305 306 307 307 305 307 307 308 312 319 320 319 317 321 328 329 326 326 324 323 326 329 334 335 332 333 331 331 334 340 344
308 308 308 308 307 304 302 303 304 304 304 304 305 305 305 305 305 305 307 307 309 309 310 310 314 322 321 314 318 320 321 323 329 329 328 329 329 329 330 330 331 332 331 330 334 339 342
308 308 308 308 307 305 302 302 304 304 304 304 305 305 305 305 305 304 307 310 311 312 311 310 319 323 326 324 321 320 322 322 326 328 330 331 328 326 328 328 328 330 330 331 344 341 341
308 308 308 308 307 304 303 301 303 304 304 303 304 304 304 305 305 304 308 312 313 313 319 322 323 326 325 323 322 323 322 322 322 326 325 327 323 324 324 327 331 331 331 331 344 343 346
308 308 307 307 307 306 304 302 302 303 303 303 303 304 304 305 305 306 308 312 309 316 310 310 316 328 325 321 314 316 323 321 321 322 324 323 321 324 324 325 329 330 332 335 342 340 350
308 307 307 307 307 306 305 304 302 301 302 303 303 304 304 304 305 308 310 312 310 310 309 311 312 312 312 313 312 314 315 322 320 321 321 321 321 324 326 326 328 329 330 333 342 346 350
306 305 305 305 306 306 305 304 303 301 302 303 303 303 303 304 306 313 313 311 310 310 309 311 313 313 313 313 313 313 313 321 321 321 322 321 322 325 326 325 327 328 328 330 344 345 346
304 305 306 305 305 304 305 304 303 301 302 303 303 303 304 304 311 308 313 310 310 309 310 314 316 318 317 316 314 315 315 318 322 321 322 323 323 324 325 325 325 326 328 330 344 344 347
305 305 305 306 305 305 304 304 303 302 303 303 303 303 304 305 307 311 314 311 310 309 319 318 319 319 319 315 315 315 316 315 322 322 324 326 323 323 324 324 324 325 326 329 341 343 344
304 304 304 305 307 305 305 304 303 303 303 303 303 303 305 307 309 310 310 309 310 313 318 318 318 318 317 318 318 319 314 315 319 323 323 324 324 323 323 324 325 325 326 327 331 338 352
304 304 304 305 306 305 305 305 305 303 303 304 303 303 305 308 309 310 309 309 312 314 317 317 315 314 314 313 315 318 313 313 315 323 323 323 323 323 323 321 322 324 322 326 330 334 360
304 304 304 304 304 305 305 305 305 303 303 303 304 304 310 312 311 310 308 309 314 316 316 315 313 312 313 313 313 314 314 316 318 321 323 323 325 323 323 321 320 323 323 325 334 337 334
304 303 303 303 305 305 306 305 305 305 303 303 305 308 310 313 311 307 307 310 314 316 313 313 313 312 313 314 315 314 313 313 319 320 323 323 324 324 323 323 321 321 325 324 325 327 333
303 302 303 303 305 306 306 306 305 305 303 303 306 309 313 313 309 309 307 309 310 311 311 312 313 314 314 314 314 313 314 315 318 321 321 323 324 324 325 322 322 320 325 325 324 328 335
302 302 303 305 306 306 306 306 305 305 304 305 308 312 313 310 310 309 308 311 312 310 310 309 309 309 309 310 310 311 313 315 316 316 317 320 322 323 325 322 320 320 322 323 324 327 331
302 303 306 307 307 307 306 306 305 305 304 306 309 314 314 311 309 310 310 313 309 309 309 308 308 308 309 309 309 309 312 313 314 314 316 320 321 323 324 325 323 321 321 323 326 327 329
303 305 307 307 307 307 307 306 306 305 305 305 310 312 313 311 310 310 310 309 309 308 308 307 307 307 307 307 309 310 311 311 312 314 316 318 319 323 325 324 325 322 322 322 324 327 329
303 307 307 307 307 308 307 307 306 305 305 305 310 314 313 312 312 311 311 308 307 308 308 308 307 308 308 308 307 309 311 311 311 312 324 324 317 321 322 324 326 324 322 324 322 324 328
304 307 307 307 307 308 308 307 306 305 305 306 312 312 311 311 311 311 310 309 308 310 309 307 308 308 309 309 308 309 312 314 318 320 317 313 317 320 321 323 324 327 324 323 324 324 328
304 307 307 307 307 307 307 307 307 305 305 307 310 310 309 309 309 310 310 312 310 309 308 308 310 309 309 309 310 310 311 311 318 318 317 315 318 323 325 326 327 329 329 323 324 325 324
304 307 307 306 306 306 307 307 307 306 305 308 309 308 309 309 309 310 312 311 311 308 308 309 309 311 310 310 311 310 309 309 314 316 317 317 323 325 327 329 330 331 331 329 324 325 325
305 307 307 306 306 306 306 308 307 306 305 307 307 307 307 309 309 310 311 310 311 311 310 309 311 310 310 311 310 311 312 312 314 315 315 319 322 323 328 332 338 331 330 332 325 326 325
304 307 307 306 306 306 306 307 307 307 305 305 305 305 306 308 308 309 311 310 310 310 310 309 311 311 310 311 314 315 313 317 317 316 316 317 320 320 333 336 333 333 337 336 335 326 327
304 307 307 306 306 306 306 306 307 307 306 305 306 304 304 306 310 308 310 310 311 310 310 310 310 311 311 313 314 319 320 318 318 317 315 316 317 321 323 337 339 336 333 334 335 338 344
305 306 307 306 306 306 306 306 307 307 306 306 306 305 303 305 305 307 309 310 310 309 310 309 308 311 312 316 315 318 317 316 316 317 317 316 318 319 322 331 339 330 335 338 346 349 342
305 306 307 306 306 306 306 306 306 306 306 306 306 305 304 305 304 306 308 309 309 309 310 307 310 313 315 316 317 321 323 325 326 314 317 317 321 321 324 331 337 327 333 344 340 337 337
305 307 307 306 306 306 307 306 306 306 306 306 306 305 304 304 305 305 305 306 308 309 310 307 311 312 313 314 314 317 317 320 324 326 326 331 327 337 335 335 326 324 326 325 325 330 332
Wind_Speed
20 21 21 22 23 24 25 25 26 28 31 32 34 35 35 36 35 34 33 33 29 29 28 22 20 19 6 4 12 22 12 4 8 18 20 12 11 10 11 10 14 14 14 8 7 16 8
20 21 21 22 23 24 25 25 26 29 31 34 35 37 39 39 39 37 34 33 29 28 24 21 19 16 2 7 15 18 10 6 8 16 15 16 10 11 9 12 10 14 15 11 8 15 12
20 21 21 22 23 25 25 26 27 29 32 34 36 38 40 40 40 39 37 32 29 28 24 21 16 7 5 19 8 9 14 9 10 16 11 22 25 13 7 9 13 16 9 8 4 9 9
20 21 22 23 23 24 25 26 28 29 32 34 35 37 40 40 40 39 36 31 30 29 27 16 12 3 8 19 17 20 17 14 12 19 20 23 26 10 7 9 14 12 7 6 6 10 6
20 21 22 23 24 25 26 26 27 29 31 33 35 38 41 41 41 39 34 31 34 24 15 6 3 5 9 14 8 20 13 17 17 17 20 18 7 6 9 6 7 6 7 8 3 10 11
21 22 23 23 24 25 26 26 27 29 30 33 35 37 41 42 41 37 31 35 18 10 1 2 7 5 9 5 6 9 17 19 9 8 10 4 3 4 4 6 10 7 7 6 8 4 10
21 22 23 24 24 26 27 27 28 30 31 33 36 38 41 43 39 30 32 18 6 2 8 9 10 13 23 22 26 13 5 12 9 7 10 9 6 11 11 11 12 12 14 6 22 13 10
22 23 24 25 25 27 28 29 29 29 31 33 35 38 41 44 38 22 18 4 8 10 12 14 23 21 35 20 14 19 24 7 10 12 10 9 16 12 13 14 16 18 18 11 8 8 7
22 23 25 26 27 27 29 30 30 30 31 33 35 37 40 44 30 9 20 14 16 18 5 15 12 10 11 16 16 20 11 11 9 14 13 13 12 17 18 18 17 20 15 10 5 4 2
23 24 25 26 26 29 31 32 31 30 32 33 35 37 38 44 8 27 7 20 20 18 4 8 6 5 5 7 11 22 24 15 12 17 18 13 17 18 20 18 14 16 14 18 9 5 5
24 24 25 25 26 28 30 32 31 31 32 34 35 36 39 30 18 9 17 27 23 13 5 5 7 11 3 7 8 9 30 15 14 18 12 16 13 23 19 19 15 20 10 16 12 7 3
24 25 26 26 26 28 29 32 33 32 33 35 37 39 41 19 12 19 27 24 19 2 7 5 7 8 7 10 11 8 14 9 7 12 16 12 8 14 19 16 19 15 12 15 6 5 2
26 26 27 27 27 29 29 31 33 34 35 37 39 41 34 14 6 10 18 10 2 4 10 7 22 12 5 7 8 4 15 15 12 9 11 12 18 17 13 13 13 15 6 5 3 7 6
26 27 28 28 27 28 29 30 32 35 35 37 43 41 17 15 12 15 15 4 4 9 14 20 16 15 8 7 9 12 9 12 15 16 7 8 13 21 14 16 11 13 12 6 7 5 6
27 27 28 28 28 27 27 28 31 35 36 38 42 24 16 15 12 7 3 3 4 5 15 16 14 9 9 7 12 16 10 8 15 17 13 10 16 12 20 17 14 11 13 11 5 8 1
28 28 28 28 27 26 26 27 29 32 35 36 33 11 11 10 1 7 1 5 9 11 12 14 8 10 11 16 13 20 9 6 5 10 15 17 7 14 16 17 18 12 6 10 5 7 6
29 29 28 27 25 24 23 26 26 29 33 26 6 4 9 3 8 2 4 7 11 9 11 8 11 9 13 14 15 15 8 20 24 21 20 7 11 23 10 11 17 7 11 5 6 6 4
29 30 28 26 24 23 21 21 22 26 30 17 8 3 9 2 2 3 7 6 8 11 9 6 5 8 10 17 12 9 10 13 27 20 12 7 4 13 20 17 11 15 10 10 7 9 4
31 30 26 23 21 20 19 18 18 20 20 14 5 5 11 5 3 5 9 9 12 10 6 7 9 10 13 11 9 11 12 18 23 18 7 9 5 5 7 11 11 12 11 10 3 3 11
31 27 24 21 20 18 17 15 14 16 15 11 4 4 4 4 5 6 9 8 9 4 7 7 6 7 11 13 12 13 23 14 27 24 27 11 4 3 6 11 10 7 19 16 12 8 11
32 25 22 20 19 17 15 13 12 13 12 7 3 3 7 5 8 10 11 7 11 9 7 2 4 8 11 13 12 16 21 15 17 22 18 4 9 6 16 19 16 20 18 19 18 16 7
31 23 21 20 17 15 14 12 9 10 10 3 3 4 5 8 12 12 10 7 10 9 6 1 5 8 8 13 12 17 19 10 8 13 14 12 6 12 17 16 17 18 20 25 22 18 14
30 21 19 18 16 14 12 11 8 7 4 5 7 6 4 7 8 8 7 9 19 7 3 2 4 6 11 11 9 13 15 13 17 17 16 10 4 8 7 9 12 11 13 11 20 13 9
31 21 18 17 15 13 12 9 7 6 5 5 4 4 2 5 7 7 5 9 19 14 8 7 6 7 11 5 12 11 13 18 19 24 19 12 3 3 7 9 5 8 9 19 20 16 10
29 20 17 15 14 13 12 9 6 5 5 7 3 3 0 4 9 13 13 16 12 14 16 11 5 10 12 4 4 5 5 5 13 19 20 2 0 4 3 3 9 10 11 11 9 16 6
28 18 15 13 13 12 11 8 6 4 6 8 7 7 3 1 2 13 13 10 4 3 10 9 12 12 8 4 1 3 5 7 6 5 8 6 6 3 5 6 4 5 22 18 13 4 17
27 19 15 12 11 11 10 7 5 3 5 9 4 13 4 1 5 5 5 6 9 8 6 7 13 7 7 6 6 5 4 8 8 8 6 4 4 7 8 5 3 16 20 10 5 1 7
26 16 13 11 9 9 8 6 3 2 5 10 3 10 7 2 8 7 8 11 12 9 8 8 7 2 5 7 3 2 4 5 5 7 9 7 5 4 4 6 8 21 9 7 2 8 11
26 15 10 9 8 7 5 3 1 2 4 7 2 4 15 2 5 23 27 24 23 22 7 6 3 5 3 4 3 4 3 4 8 2 8 5 6 1 3 4 2 7 8 11 10 6 8
Wind_Direction
23 20 17 15 13 12 10 10 10 8 5 2 359 356 353 351 346 341 337 336 332 332 336 333 333 333 341 237 249 256 267 246 190 191 218 224 243 249 243 252 265 269 265 282 140 128 161
19 16 13 11 8 7 7 6 5 5 3 0 357 354 352 349 345 340 334 330 326 326 329 329 326 331 279 249 257 264 226 191 195 190 215 226 234 239 260 263 269 282 289 271 152 133 162
14 12 9 7 5 5 4 2 0 0 0 358 355 352 349 348 344 339 332 325 321 319 316 315 318 324 262 244 253 279 207 206 221 193 223 222 239 260 255 280 270 283 301 307 245 146 132
10 8 6 4 1 360 360 358 357 356 356 355 352 349 346 345 342 337 330 322 316 314 307 296 308 217 251 267 283 280 256 251 232 224 219 227 231 254 267 283 295 291 306 291 278 148 148
6 5 3 1 358 355 355 354 353 352 353 352 351 347 345 343 340 336 328 320 319 306 303 266 283 213 265 307 226 243 247 246 221 246 246 253 290 230 269 268 304 282 246 241 346 154 155
2 0 358 357 355 353 351 350 348 348 349 349 347 345 343 340 338 336 326 327 336 325 51 218 259 268 256 253 306 218 227 230 240 210 249 246 282 262 263 211 221 237 239 249 145 270 119
358 356 354 353 351 350 349 348 345 345 345 346 345 344 342 338 336 331 331 343 2 333 6 271 261 251 291 290 315 307 239 228 247 226 217 221 214 228 227 232 245 251 254 219 174 219 126
354 354 352 351 349 347 346 346 345 342 343 343 343 342 341 336 333 327 329 324 4 278 300 259 255 255 257 274 282 281 283 229 215 235 197 218 226 220 235 233 234 251 260 268 217 111 99
352 352 353 350 346 344 345 345 344 342 342 341 340 340 340 336 333 356 330 353 340 337 282 294 243 232 235 204 240 250 253 226 207 228 233 210 231 218 230 234 229 237 246 258 145 312 61
350 350 350 346 346 345 343 343 343 341 341 340 337 337 338 339 336 330 306 352 336 327 294 272 207 197 191 221 221 224 235 238 211 215 233 220 227 220 232 238 223 244 230 249 142 132 187
348 346 345 343 342 342 342 340 341 340 339 337 335 333 334 339 290 302 314 329 321 306 304 165 168 158 155 176 286 203 207 233 227 220 213 232 203 230 222 232 234 241 240 241 177 155 184
343 343 341 340 337 339 341 340 340 338 336 335 332 329 332 336 294 279 313 311 306 239 250 273 150 182 189 211 232 248 181 234 257 232 245 250 238 224 231 241 234 249 249 264 213 156 17
343 343 341 339 338 337 338 338 338 335 335 334 331 326 321 291 248 321 325 309 269 240 317 344 343 356 38 339 321 185 179 205 219 207 229 249 250 262 246 235 245 231 246 251 293 210 180
341 340 339 337 336 335 336 336 336 338 335 334 330 325 319 266 281 302 309 306 261 287 308 335 351 338 325 12 335 321 319 189 217 236 202 223 237 230 240 232 216 224 215 207 203 208 231
340 338 337 335 333 334 334 335 334 335 335 337 332 327 294 274 241 310 327 267 266 281 357 341 333 327 320 351 350 319 280 275 207 219 231 204 240 260 228 246 219 246 221 224 235 269 235
337 336 335 334 331 332 333 333 333 334 334 340 328 304 287 156 201 314 262 248 298 327 4 0 346 8 350 352 345 355 321 280 314 199 224 253 271 251 243 229 255 211 219 234 229 216 258
337 337 335 331 330 330 332 330 333 334 335 344 300 290 142 155 298 282 247 263 287 24 21 9 343 330 332 328 328 326 270 312 22 351 340 254 224 264 279 227 219 240 229 254 200 169 199
337 335 332 329 328 328 329 328 332 335 340 355 308 283 6 2 283 223 236 274 21 4 1 350 320 336 344 343 311 305 278 301 319 328 327 356 305 239 251 264 253 222 208 183 208 244 254
337 335 334 331 327 324 325 328 330 334 348 335 302 275 296 234 285 331 341 356 0 336 356 22 4 358 348 332 317 306 301 326 304 307 333 345 4 316 273 266 268 236 216 212 189 165 228
337 336 336 333 332 328 325 328 327 328 339 344 289 302 0 349 305 358 357 343 317 358 47 29 347 330 315 300 288 285 296 301 310 305 302 328 259 254 280 288 312 257 217 205 212 226 239
338 334 336 336 330 328 323 325 324 321 333 335 264 332 357 308 332 342 309 307 305 334 325 277 194 287 316 303 282 282 289 346 324 307 286 296 274 278 279 278 290 285 248 212 214 225 210
338 334 336 334 330 329 323 320 320 319 324 270 313 346 350 305 291 290 303 341 267 265 271 321 287 286 288 274 268 292 303 328 277 326 331 310 281 288 277 297 291 283 290 201 224 225 234
338 336 335 331 331 325 322 321 313 305 319 299 8 344 324 288 292 293 7 308 303 330 323 286 274 317 293 277 305 298 278 281 276 290 293 287 7 343 289 290 288 272 269 263 208 233 199
339 336 333 329 330 330 325 319 306 277 243 313 11 360 333 286 321 349 258 326 346 355 329 311 88 24 274 3 314 276 271 265 264 269 257 270 9 283 292 309 256 251 281 294 198 211 227
337 334 331 327 330 329 326 319 301 269 244 235 226 122 136 282 331 311 353 342 4 343 334 329 158 184 251 219 291 244 218 240 249 253 259 241 219 290 271 274 279 290 15 345 348 205 228
338 336 329 327 328 329 328 319 316 278 230 219 231 181 127 315 245 360 333 335 342 224 281 344 348 38 179 173 193 253 204 187 200 198 213 229 234 194 314 312 243 340 334 317 318 80 1
340 336 329 327 329 331 332 326 320 265 223 207 217 207 131 221 278 328 301 317 306 317 281 345 344 16 280 189 201 214 247 200 195 184 171 217 271 252 269 250 59 332 339 309 61 24 4
339 336 328 324 327 334 339 338 320 248 211 199 233 216 182 202 279 260 316 304 302 312 352 334 345 345 323 19 326 335 321 2 309 182 175 182 212 215 246 267 281 349 12 53 331 7 54
336 332 325 320 322 332 334 319 291 228 199 190 168 223 214 259 277 298 289 268 256 264 280 301 360 324 54 5 352 317 348 324 344 150 338 104 354 342 31 96 28 0 44 27 25 21 40